Starlink 11350

operational
NORAD ID: 61540 Int'l Des: 2024-184 Owner: SPXS Country: US Constellation: starlink
LEOCIRCULAR

关于 Starlink 11350

正在加载描述...

实时位置

正在加载3D地球...

即将过境

高度历史

Altitude vs Time

uPlot chart will show altitude changes over time

两行轨道根数

1 61540U 24184J 25308.52424104 .00000657 00000-0 10292-4 0 9991
2 61540 53.1554 132.9172 0001825 99.0472 261.0753 15.69706288 60768
Epoch: Nov 4, 2025 • Age: 20 hours

当前状态

高度 378.6 km
速度 7.68 km/s
星下点 -50.95°S, 104.49°W
发射日期 Oct 15, 2024
运行时间 1 years
类型 internet

技术详情

分类 Payload
质量 960.00 kg
干质量 910.00 kg
总质量 960.00 kg
长度 0.30 m
直径 4.10 m
跨度 29.00 m
形状 Box + pan
制造商 SPXS
平台类型 Starlink V2MD
阶段状态 In Orbit
所有者/国家 SPXS/US

大型星座

Loading constellations...